Date String (YYYY-MM-DD hh:mm:ss) UTC,Instrument flags,Ambient pressure (hPa),Sample flow (lpm),Bypass flow (lpm),Sample temperature (°C),Ambient temperature (°C),ASC tube jacket temperature (°C),LED temperature (°C),Box temperature (°C),Sample RH (%),Span deviation,Mass concentration (μg/m³),Mass concentration (μg/m³),Mass concentration (μg/m³)
DateTimeUTC,F1_M11,P_M11,Q1_M11,Q2_M11,T1_M11,T2_M11,T3_M11,T4_M11,T5_M11,U1_M11,ZSPAN_M11,X0_M11,X2_M11,X1_M11
2021-11-27 11:00:00,,0827.4,5.01,0.00,27.4,26.4,00.0,36.5,29.1,07.5,0000.0,0006.13,0001.94,0001.12
2021-11-27 11:01:00,,0827.4,5.00,0.00,27.4,26.4,00.0,36.5,29.1,07.5,0000.0,0005.40,0002.02,0001.15
2021-11-27 11:02:00,,0827.5,5.00,0.00,27.4,26.4,00.0,36.5,29.1,07.5,0000.0,0004.95,0002.02,0001.21
2021-11-27 11:03:00,,0827.5,4.99,0.00,27.4,26.4,00.0,36.5,29.2,07.5,0000.0,0005.16,0002.10,0001.25
2021-11-27 11:04:00,,0827.6,5.01,0.00,27.4,26.5,00.0,36.4,29.2,07.5,0000.0,0005.29,0002.20,0001.29
2021-11-27 11:05:00,,0827.5,4.99,0.00,27.4,26.5,00.0,36.4,29.2,07.5,0000.0,0005.11,0002.28,0001.35
2021-11-27 11:06:00,,0827.5,5.00,0.00,27.4,26.5,00.0,36.4,29.2,07.6,0000.0,0005.61,0002.33,0001.40
2021-11-27 11:07:00,,0827.5,5.00,0.00,27.4,26.5,00.0,36.4,29.2,07.5,0000.0,0005.67,0002.32,0001.42
2021-11-27 11:08:00,,0827.5,4.99,0.00,27.4,26.5,00.0,36.4,29.2,07.5,0000.0,0005.38,0002.25,0001.41
2021-11-27 11:09:00,,0827.5,5.00,0.00,27.4,26.6,00.0,36.4,29.2,07.5,0000.0,0005.30,0002.22,0001.41
2021-11-27 11:10:00,,0827.4,5.00,0.00,27.4,26.6,00.0,36.4,29.2,07.5,0000.0,0005.63,0002.23,0001.45
2021-11-27 11:11:00,,0827.4,4.99,0.00,27.4,26.6,00.0,36.4,29.2,07.5,0000.0,0005.82,0002.28,0001.51
2021-11-27 11:12:00,,0827.4,4.99,0.00,27.4,26.6,00.0,36.4,29.2,07.5,0000.0,0006.14,0002.34,0001.54
2021-11-27 11:13:00,,0827.4,5.01,0.00,27.4,26.6,00.0,36.4,29.2,07.5,0000.0,0006.44,0002.45,0001.59
2021-11-27 11:14:00,,0827.4,5.01,0.00,27.4,26.6,00.0,36.4,29.2,07.5,0000.0,0006.46,0002.52,0001.66
2021-11-27 11:15:00,,0827.4,5.00,0.00,27.4,26.6,00.0,36.4,29.3,07.5,0000.0,0006.92,0002.61,0001.77
2021-11-27 11:16:00,,0827.4,5.00,0.00,27.4,26.6,00.0,36.4,29.3,07.5,0000.0,0006.77,0002.71,0001.86
2021-11-27 11:17:00,,0827.4,4.99,0.00,27.5,26.6,00.0,36.4,29.3,07.5,0000.0,0007.47,0002.83,0001.96
2021-11-27 11:18:00,,0827.4,5.00,0.00,27.5,26.6,00.0,36.4,29.3,07.5,0000.0,0007.93,0002.98,0002.04
2021-11-27 11:19:00,,0827.5,5.01,0.00,27.5,26.6,00.0,36.4,29.3,07.5,0000.0,0008.47,0003.11,0002.14
2021-11-27 11:20:00,,0827.5,5.01,0.00,27.5,26.6,00.0,36.4,29.3,07.5,0000.0,0008.56,0003.17,0002.21
2021-11-27 11:21:00,,0827.5,4.98,0.00,27.5,26.6,00.0,36.4,29.2,07.5,0000.0,0008.56,0003.24,0002.26
2021-11-27 11:22:00,,0827.5,5.00,0.00,27.4,26.6,00.0,36.4,29.2,07.5,0000.0,0009.01,0003.28,0002.30
2021-11-27 11:23:00,,0827.6,5.01,0.00,27.4,26.5,00.0,36.4,29.2,07.5,0000.0,0009.02,0003.31,0002.35
2021-11-27 11:24:00,,0827.6,4.99,0.00,27.4,26.5,00.0,36.4,29.1,07.6,0000.0,0009.78,0003.31,0002.38
2021-11-27 11:25:00,,0827.6,5.02,0.00,27.3,26.5,00.0,36.4,29.1,07.6,0000.0,0009.89,0003.33,0002.39
2021-11-27 11:26:00,,0827.6,4.99,0.00,27.3,26.5,00.0,36.4,29.0,07.6,0000.0,0009.66,0003.30,0002.37
2021-11-27 11:27:00,,0827.6,5.00,0.00,27.3,26.5,00.0,36.4,29.1,07.7,0000.0,0009.74,0003.29,0002.35
2021-11-27 11:28:00,,0827.6,5.01,0.00,27.3,26.4,00.0,36.4,29.1,07.7,0000.0,0009.85,0003.32,0002.37
2021-11-27 11:29:00,,0827.5,5.00,0.00,27.3,26.4,00.0,36.4,29.1,07.7,0000.0,0010.06,0003.37,0002.43
2021-11-27 11:30:00,,0827.5,4.99,0.00,27.3,26.4,00.0,36.4,29.1,07.7,0000.0,0009.85,0003.40,0002.49
2021-11-27 11:31:00,,0827.5,5.00,0.00,27.3,26.4,00.0,36.4,29.1,07.7,0000.0,0010.20,0003.44,0002.55
2021-11-27 11:32:00,,0827.6,5.00,0.00,27.3,26.4,00.0,36.3,29.0,07.7,0000.0,0010.60,0003.46,0002.60
2021-11-27 11:33:00,,0827.5,5.01,0.00,27.3,26.4,00.0,36.4,29.0,07.7,0000.0,0011.18,0003.46,0002.65
2021-11-27 11:34:00,,0827.5,5.01,0.00,27.3,26.4,00.0,36.3,29.0,07.8,0000.0,0011.28,0003.48,0002.68
2021-11-27 11:35:00,,0827.7,4.99,0.00,27.3,26.4,00.0,36.3,29.0,07.8,0000.0,0011.02,0003.53,0002.70
2021-11-27 11:36:00,,0827.6,5.02,0.00,27.3,26.4,00.0,36.3,29.0,07.8,0000.0,0011.27,0003.53,0002.70
2021-11-27 11:37:00,,0827.7,5.01,0.00,27.2,26.3,00.0,36.3,28.9,07.8,0000.0,0011.35,0003.52,0002.73
2021-11-27 11:38:00,,0827.7,4.99,0.00,27.2,26.3,00.0,36.3,28.9,07.8,0000.0,0011.36,0003.56,0002.77
2021-11-27 11:39:00,,0827.7,5.01,0.00,27.1,26.2,00.0,36.3,28.8,07.8,0000.0,0010.87,0003.59,0002.79
2021-11-27 11:40:00,,0827.7,5.00,0.00,27.1,26.2,00.0,36.3,28.8,07.9,0000.0,0010.65,0003.59,0002.78
2021-11-27 11:41:00,,0827.9,4.99,0.00,27.1,26.2,00.0,36.2,28.8,07.9,0000.0,0010.63,0003.61,0002.78
2021-11-27 11:42:00,,0827.9,5.01,0.00,27.1,26.1,00.0,36.2,28.7,07.9,0000.0,0010.51,0003.60,0002.80
2021-11-27 11:43:00,,0827.9,4.99,0.00,27.0,26.1,00.0,36.2,28.7,07.9,0000.0,0010.57,0003.61,0002.82
2021-11-27 11:44:00,,0828.0,5.01,0.00,27.0,26.1,00.0,36.2,28.7,07.9,0000.0,0009.98,0003.67,0002.85
2021-11-27 11:45:00,,0828.1,4.99,0.00,27.0,26.1,00.0,36.2,28.7,07.9,0000.0,0010.26,0003.74,0002.89
2021-11-27 11:46:00,,0828.2,5.01,0.00,27.0,26.1,00.0,36.2,28.7,07.9,0000.0,0010.09,0003.75,0002.92
2021-11-27 11:47:00,,0828.2,5.00,0.00,27.0,26.1,00.0,36.1,28.7,07.9,0000.0,0009.62,0003.75,0002.94
2021-11-27 11:48:00,,0828.3,5.00,0.00,27.0,26.1,00.0,36.1,28.7,07.9,0000.0,0009.50,0003.75,0002.95
2021-11-27 11:49:00,,0828.3,4.98,0.00,27.0,26.1,00.0,36.1,28.6,07.9,0000.0,0009.39,0003.75,0002.96
2021-11-27 11:50:00,,0828.3,5.00,0.00,26.9,26.1,00.0,36.1,28.6,07.9,0000.0,0009.25,0003.73,0002.99
2021-11-27 11:51:00,,0828.3,5.00,0.00,26.9,26.0,00.0,36.1,28.6,08.0,0000.0,0009.01,0003.71,0003.02
2021-11-27 11:52:00,,0828.3,5.00,0.00,26.9,26.0,00.0,36.1,28.6,08.0,0000.0,0008.65,0003.70,0003.04
2021-11-27 11:53:00,,0828.3,4.99,0.00,26.9,26.0,00.0,36.0,28.5,08.0,0000.0,0008.65,0003.73,0003.05
2021-11-27 11:54:00,,0828.3,5.00,0.00,26.8,26.0,00.0,36.0,28.5,08.0,0000.0,0008.22,0003.71,0003.04
2021-11-27 11:55:00,,0828.3,5.00,0.00,26.8,26.0,00.0,36.0,28.5,08.0,0000.0,0008.34,0003.70,0003.05
2021-11-27 11:56:00,,0828.3,4.99,0.00,26.8,26.0,00.0,36.0,28.5,08.0,0000.0,0007.87,0003.68,0003.03
2021-11-27 11:57:00,,0828.4,4.99,0.00,26.8,26.0,00.0,36.0,28.5,08.0,0000.0,0007.84,0003.68,0003.04
2021-11-27 11:58:00,,0828.2,5.01,0.00,26.8,26.0,00.0,36.0,28.5,08.0,0000.0,0008.08,0003.73,0003.05
2021-11-27 11:59:00,,0828.2,4.99,0.00,26.8,26.0,00.0,35.9,28.5,08.0,0000.0,0008.12,0003.75,0003.05
